Year,Month,Day,Hour,Minute,Value (Times are PST for temperature in C)
2014,09,04,00,00,11.00
2014,09,04,00,01,11.00
2014,09,04,00,02,11.00
2014,09,04,00,03,10.90
2014,09,04,00,04,10.90
2014,09,04,00,05,10.90
2014,09,04,00,06,10.90
2014,09,04,00,07,10.90
2014,09,04,00,08,10.90
2014,09,04,00,09,10.90
2014,09,04,00,10,10.90
2014,09,04,00,11,10.90
2014,09,04,00,12,10.90
2014,09,04,00,13,10.90
2014,09,04,00,14,10.90
2014,09,04,00,15,10.90
2014,09,04,00,16,10.90
2014,09,04,00,17,10.90
2014,09,04,00,18,10.80
2014,09,04,00,19,10.80
2014,09,04,00,20,10.80
2014,09,04,00,21,10.80
2014,09,04,00,22,10.80
2014,09,04,00,23,10.80
2014,09,04,00,24,10.80
2014,09,04,00,25,10.80
2014,09,04,00,26,10.80
2014,09,04,00,27,10.80
2014,09,04,00,28,10.80
2014,09,04,00,29,10.80
2014,09,04,00,30,10.80
2014,09,04,00,31,10.80
2014,09,04,00,32,10.80
2014,09,04,00,33,10.70
2014,09,04,00,34,10.70
2014,09,04,00,35,10.70
2014,09,04,00,36,10.70
2014,09,04,00,37,10.70
2014,09,04,00,38,10.70
2014,09,04,00,39,10.70
2014,09,04,00,40,10.70
2014,09,04,00,41,10.70
2014,09,04,00,42,10.70
2014,09,04,00,43,10.70
2014,09,04,00,44,10.70
2014,09,04,00,45,10.60
2014,09,04,00,46,10.60
2014,09,04,00,47,10.60
2014,09,04,00,48,10.60
2014,09,04,00,49,10.60
2014,09,04,00,50,10.60
2014,09,04,00,51,10.60
2014,09,04,00,52,10.70
2014,09,04,00,53,10.60
2014,09,04,00,54,10.60
2014,09,04,00,55,10.60
2014,09,04,00,56,10.60
2014,09,04,00,57,10.60
2014,09,04,00,58,10.60
2014,09,04,00,59,10.60
2014,09,04,01,00,10.60
2014,09,04,01,01,10.60
2014,09,04,01,02,10.50
2014,09,04,01,03,10.50
2014,09,04,01,04,10.50
2014,09,04,01,05,10.50
2014,09,04,01,06,10.50
2014,09,04,01,07,10.50
2014,09,04,01,08,10.40
2014,09,04,01,09,10.40
2014,09,04,01,10,10.40
2014,09,04,01,11,10.40
2014,09,04,01,12,10.40
2014,09,04,01,13,10.40
2014,09,04,01,14,10.40
2014,09,04,01,15,10.40
2014,09,04,01,16,10.40
2014,09,04,01,17,10.40
2014,09,04,01,18,10.40
2014,09,04,01,19,10.40
2014,09,04,01,20,10.40
2014,09,04,01,21,10.40
2014,09,04,01,22,10.40
2014,09,04,01,23,10.40
2014,09,04,01,24,10.40
2014,09,04,01,25,10.40
2014,09,04,01,26,10.40
2014,09,04,01,27,10.40
2014,09,04,01,28,10.40
2014,09,04,01,29,10.40
2014,09,04,01,30,10.40
2014,09,04,01,31,10.40
2014,09,04,01,32,10.40
2014,09,04,01,33,10.40
2014,09,04,01,34,10.30
2014,09,04,01,35,10.40
2014,09,04,01,36,10.40
2014,09,04,01,37,10.40
2014,09,04,01,38,10.40
2014,09,04,01,39,10.40
2014,09,04,01,40,10.40
2014,09,04,01,41,10.40
2014,09,04,01,42,10.40
2014,09,04,01,43,10.40
2014,09,04,01,44,10.30
2014,09,04,01,45,10.30
2014,09,04,01,46,10.30
2014,09,04,01,47,10.30
2014,09,04,01,48,10.30
2014,09,04,01,49,10.30
2014,09,04,01,50,10.30
2014,09,04,01,51,10.30
2014,09,04,01,52,10.30
2014,09,04,01,53,10.30
2014,09,04,01,54,10.30
2014,09,04,01,55,10.30
2014,09,04,01,56,10.30
2014,09,04,01,57,10.30
2014,09,04,01,58,10.30
2014,09,04,01,59,10.30
2014,09,04,02,00,10.30
2014,09,04,02,01,10.30
2014,09,04,02,02,10.30
2014,09,04,02,03,10.30
2014,09,04,02,04,10.20
2014,09,04,02,05,10.20
2014,09,04,02,06,10.20
2014,09,04,02,07,10.20
2014,09,04,02,08,10.20
2014,09,04,02,09,10.20
2014,09,04,02,10,10.30
2014,09,04,02,11,10.30
2014,09,04,02,12,10.30
2014,09,04,02,13,10.30
2014,09,04,02,14,10.30
2014,09,04,02,15,10.30
2014,09,04,02,16,10.30
2014,09,04,02,17,10.30
2014,09,04,02,18,10.30
2014,09,04,02,19,10.30
2014,09,04,02,20,10.30
2014,09,04,02,21,10.30
2014,09,04,02,22,10.20
2014,09,04,02,23,10.20
2014,09,04,02,24,10.20
2014,09,04,02,25,10.20
2014,09,04,02,26,10.20
2014,09,04,02,27,10.20
2014,09,04,02,28,10.10
2014,09,04,02,29,10.10
2014,09,04,02,30,10.10
2014,09,04,02,31,10.10
2014,09,04,02,32,10.10
2014,09,04,02,33,10.20
2014,09,04,02,34,10.20
2014,09,04,02,35,10.20
2014,09,04,02,36,10.20
2014,09,04,02,37,10.10
2014,09,04,02,38,10.10
2014,09,04,02,39,10.10
2014,09,04,02,40,10.10
2014,09,04,02,41,10.10
2014,09,04,02,42,10.10
2014,09,04,02,43,10.10
2014,09,04,02,44,10.10
2014,09,04,02,45,10.10
2014,09,04,02,46,10.10
2014,09,04,02,47,10.10
2014,09,04,02,48,10.10
2014,09,04,02,49,10.10
2014,09,04,02,50,10.10
2014,09,04,02,51,10.10
2014,09,04,02,52,10.10
2014,09,04,02,53,10.10
2014,09,04,02,54,10.00
2014,09,04,02,55,10.00
2014,09,04,02,56,10.00
2014,09,04,02,57,10.10
2014,09,04,02,58,10.10
2014,09,04,02,59,10.10
2014,09,04,03,00,10.10
2014,09,04,03,01,10.10
2014,09,04,03,02,10.00
2014,09,04,03,03,10.00
2014,09,04,03,04,10.00
2014,09,04,03,05,10.00
2014,09,04,03,06,10.00
2014,09,04,03,07,10.00
2014,09,04,03,08,10.10
2014,09,04,03,09,10.10
2014,09,04,03,10,10.10
2014,09,04,03,11,10.00
2014,09,04,03,12,10.00
2014,09,04,03,13,10.00
2014,09,04,03,14,9.90
2014,09,04,03,15,9.90
2014,09,04,03,16,9.90
2014,09,04,03,17,9.90
2014,09,04,03,18,9.90
2014,09,04,03,19,9.90
2014,09,04,03,20,9.90
2014,09,04,03,21,9.90
2014,09,04,03,22,9.80
2014,09,04,03,23,9.80
2014,09,04,03,24,9.80
2014,09,04,03,25,9.80
2014,09,04,03,26,9.80
2014,09,04,03,27,9.70
2014,09,04,03,28,9.70
2014,09,04,03,29,9.70
2014,09,04,03,30,9.70
2014,09,04,03,31,9.70
2014,09,04,03,32,9.70
2014,09,04,03,33,9.70
2014,09,04,03,34,9.70
2014,09,04,03,35,9.70
2014,09,04,03,36,9.70
2014,09,04,03,37,9.80
2014,09,04,03,38,9.70
2014,09,04,03,39,9.80
2014,09,04,03,40,9.80
2014,09,04,03,41,9.80
2014,09,04,03,42,9.80
2014,09,04,03,43,9.80
2014,09,04,03,44,9.70
2014,09,04,03,45,9.70
2014,09,04,03,46,9.70
2014,09,04,03,47,9.70
2014,09,04,03,48,9.70
2014,09,04,03,49,9.70
2014,09,04,03,50,9.70
2014,09,04,03,51,9.70
2014,09,04,03,52,9.70
2014,09,04,03,53,9.60
2014,09,04,03,54,9.60
2014,09,04,03,55,9.60
2014,09,04,03,56,9.60
2014,09,04,03,57,9.60
2014,09,04,03,58,9.60
2014,09,04,03,59,9.60
2014,09,04,04,00,9.60
2014,09,04,04,01,9.50
2014,09,04,04,02,9.50
2014,09,04,04,03,9.50
2014,09,04,04,04,9.50
2014,09,04,04,05,9.50
2014,09,04,04,06,9.50
2014,09,04,04,07,9.50
2014,09,04,04,08,9.50
2014,09,04,04,09,9.50
2014,09,04,04,10,9.50
2014,09,04,04,11,9.50
2014,09,04,04,12,9.60
2014,09,04,04,13,9.50
2014,09,04,04,14,9.50
2014,09,04,04,15,9.50
2014,09,04,04,16,9.50
2014,09,04,04,17,9.50
2014,09,04,04,18,9.40
2014,09,04,04,19,9.40
2014,09,04,04,20,9.40
2014,09,04,04,21,9.40
2014,09,04,04,22,9.50
2014,09,04,04,23,9.60
2014,09,04,04,24,9.60
2014,09,04,04,25,9.60
2014,09,04,04,26,9.60
2014,09,04,04,27,9.50
2014,09,04,04,28,9.40
2014,09,04,04,29,9.40
2014,09,04,04,30,9.40
2014,09,04,04,31,9.50
2014,09,04,04,32,9.50
2014,09,04,04,33,9.40
2014,09,04,04,34,9.50
2014,09,04,04,35,9.50
2014,09,04,04,36,9.50
2014,09,04,04,37,9.60
2014,09,04,04,38,9.60
2014,09,04,04,39,9.60
2014,09,04,04,40,9.60
2014,09,04,04,41,9.60
2014,09,04,04,42,9.50
2014,09,04,04,43,9.50
2014,09,04,04,44,9.50
2014,09,04,04,45,9.40
2014,09,04,04,46,9.40
2014,09,04,04,47,9.40
2014,09,04,04,48,9.40
2014,09,04,04,49,9.40
2014,09,04,04,50,9.40
2014,09,04,04,51,9.40
2014,09,04,04,52,9.50
2014,09,04,04,53,9.50
2014,09,04,04,54,9.40
2014,09,04,04,55,9.40
2014,09,04,04,56,9.40
2014,09,04,04,57,9.40
2014,09,04,04,58,9.40
2014,09,04,04,59,9.30
2014,09,04,05,00,9.30
2014,09,04,05,01,9.30
2014,09,04,05,02,9.30
2014,09,04,05,03,9.30
2014,09,04,05,04,9.30
2014,09,04,05,05,9.30
2014,09,04,05,06,9.30
2014,09,04,05,07,9.30
2014,09,04,05,08,9.30
2014,09,04,05,09,9.30
2014,09,04,05,10,9.20
2014,09,04,05,11,9.20
2014,09,04,05,12,9.20
2014,09,04,05,13,9.20
2014,09,04,05,14,9.20
2014,09,04,05,15,9.20
2014,09,04,05,16,9.20
2014,09,04,05,17,9.10
2014,09,04,05,18,9.20
2014,09,04,05,19,9.20
2014,09,04,05,20,9.20
2014,09,04,05,21,9.20
2014,09,04,05,22,9.20
2014,09,04,05,23,9.20
2014,09,04,05,24,9.20
2014,09,04,05,25,9.20
2014,09,04,05,26,9.30
2014,09,04,05,27,9.30
2014,09,04,05,28,9.30
2014,09,04,05,29,9.30
2014,09,04,05,30,9.20
2014,09,04,05,31,9.20
2014,09,04,05,32,9.20
2014,09,04,05,33,9.20
2014,09,04,05,34,9.20
2014,09,04,05,35,9.20
2014,09,04,05,36,9.20
2014,09,04,05,37,9.20
2014,09,04,05,38,9.20
2014,09,04,05,39,9.20
2014,09,04,05,40,9.20
2014,09,04,05,41,9.20
2014,09,04,05,42,9.20
2014,09,04,05,43,9.10
2014,09,04,05,44,9.10
2014,09,04,05,45,9.10
2014,09,04,05,46,9.10
2014,09,04,05,47,9.10
2014,09,04,05,48,9.10
2014,09,04,05,49,9.10
2014,09,04,05,50,9.10
2014,09,04,05,51,9.10
2014,09,04,05,52,9.10
2014,09,04,05,53,9.10
2014,09,04,05,54,9.00
2014,09,04,05,55,9.00
2014,09,04,05,56,8.90
2014,09,04,05,57,8.90
2014,09,04,05,58,8.90
2014,09,04,05,59,8.90
2014,09,04,06,00,8.90
2014,09,04,06,01,8.90
2014,09,04,06,02,8.90
2014,09,04,06,03,8.80
2014,09,04,06,04,8.80
2014,09,04,06,05,8.90
2014,09,04,06,06,8.90
2014,09,04,06,07,8.90
2014,09,04,06,08,8.90
2014,09,04,06,09,9.00
2014,09,04,06,10,8.90
2014,09,04,06,11,8.90
2014,09,04,06,12,8.90
2014,09,04,06,13,8.90
2014,09,04,06,14,8.80
2014,09,04,06,15,8.80
2014,09,04,06,16,8.80
2014,09,04,06,17,8.80
2014,09,04,06,18,8.80
2014,09,04,06,19,8.70
2014,09,04,06,20,8.70
2014,09,04,06,21,8.70
2014,09,04,06,22,8.70
2014,09,04,06,23,8.70
2014,09,04,06,24,8.70
2014,09,04,06,25,8.80
2014,09,04,06,26,8.80
2014,09,04,06,27,8.80
2014,09,04,06,28,8.80
2014,09,04,06,29,8.80
2014,09,04,06,30,8.80
2014,09,04,06,31,8.80
2014,09,04,06,32,8.80
2014,09,04,06,33,8.80
2014,09,04,06,34,8.80
2014,09,04,06,35,8.90
2014,09,04,06,36,8.90
2014,09,04,06,37,8.90
2014,09,04,06,38,8.90
2014,09,04,06,39,8.90
2014,09,04,06,40,8.90
2014,09,04,06,41,8.90
2014,09,04,06,42,8.90
2014,09,04,06,43,8.90
2014,09,04,06,44,8.90
2014,09,04,06,45,8.90
2014,09,04,06,46,8.90
2014,09,04,06,47,8.90
2014,09,04,06,48,8.90
2014,09,04,06,49,8.80
2014,09,04,06,50,8.80
2014,09,04,06,51,8.80
2014,09,04,06,52,8.80
2014,09,04,06,53,8.80
2014,09,04,06,54,8.80
2014,09,04,06,55,8.80
2014,09,04,06,56,8.80
2014,09,04,06,57,8.80
2014,09,04,06,58,8.80
2014,09,04,06,59,8.80
2014,09,04,07,00,8.70
2014,09,04,07,01,8.70
2014,09,04,07,02,8.70
2014,09,04,07,03,8.70
2014,09,04,07,04,8.70
2014,09,04,07,05,8.70
2014,09,04,07,06,8.70
2014,09,04,07,07,8.80
2014,09,04,07,08,8.80
2014,09,04,07,09,8.80
2014,09,04,07,10,8.80
2014,09,04,07,11,8.80
2014,09,04,07,12,8.80
2014,09,04,07,13,8.90
2014,09,04,07,14,8.90
2014,09,04,07,15,8.90
2014,09,04,07,16,8.90
2014,09,04,07,17,8.90
2014,09,04,07,18,9.00
2014,09,04,07,19,9.00
2014,09,04,07,20,9.10
2014,09,04,07,21,9.10
2014,09,04,07,22,9.10
2014,09,04,07,23,9.20
2014,09,04,07,24,9.20
2014,09,04,07,25,9.20
2014,09,04,07,26,9.20
2014,09,04,07,27,9.20
2014,09,04,07,28,9.20
2014,09,04,07,29,9.20
2014,09,04,07,30,9.20
2014,09,04,07,31,9.20
2014,09,04,07,32,9.20
2014,09,04,07,33,9.30
2014,09,04,07,34,9.30
2014,09,04,07,35,9.30
2014,09,04,07,36,9.30
2014,09,04,07,37,9.40
2014,09,04,07,38,9.40
2014,09,04,07,39,9.30
2014,09,04,07,40,9.30
2014,09,04,07,41,9.20
2014,09,04,07,42,9.20
2014,09,04,07,43,9.10
2014,09,04,07,44,9.20
2014,09,04,07,45,9.20
2014,09,04,07,46,9.20
2014,09,04,07,47,9.20
2014,09,04,07,48,9.20
2014,09,04,07,49,9.20
2014,09,04,07,50,9.20
2014,09,04,07,51,9.20
2014,09,04,07,52,9.20
2014,09,04,07,53,9.20
2014,09,04,07,54,9.20
2014,09,04,07,55,9.20
2014,09,04,07,56,9.20
2014,09,04,07,57,9.30
2014,09,04,07,58,9.30
2014,09,04,07,59,9.30
2014,09,04,08,00,9.30
2014,09,04,08,01,9.40
2014,09,04,08,02,9.40
2014,09,04,08,03,9.40
2014,09,04,08,04,9.40
2014,09,04,08,05,9.40
2014,09,04,08,06,9.40
2014,09,04,08,07,9.50
2014,09,04,08,08,9.50
2014,09,04,08,09,9.50
2014,09,04,08,10,9.60
2014,09,04,08,11,9.60
2014,09,04,08,12,9.70
2014,09,04,08,13,9.70
2014,09,04,08,14,9.70
2014,09,04,08,15,9.70
2014,09,04,08,16,9.70
2014,09,04,08,17,9.80
2014,09,04,08,18,9.80
2014,09,04,08,19,9.90
2014,09,04,08,20,9.90
2014,09,04,08,21,10.00
2014,09,04,08,22,10.10
2014,09,04,08,23,10.10
2014,09,04,08,24,10.20
2014,09,04,08,25,10.20
2014,09,04,08,26,10.20
2014,09,04,08,27,10.30
2014,09,04,08,28,10.40
2014,09,04,08,29,10.40
2014,09,04,08,30,10.40
2014,09,04,08,31,10.40
2014,09,04,08,32,10.50
2014,09,04,08,33,10.50
2014,09,04,08,34,10.50
2014,09,04,08,35,10.50
2014,09,04,08,36,10.60
2014,09,04,08,37,10.60
2014,09,04,08,38,10.60
2014,09,04,08,39,10.60
2014,09,04,08,40,10.60
2014,09,04,08,41,10.70
2014,09,04,08,42,10.70
2014,09,04,08,43,10.70
2014,09,04,08,44,10.70
2014,09,04,08,45,10.80
2014,09,04,08,46,10.80
2014,09,04,08,47,10.90
2014,09,04,08,48,11.00
2014,09,04,08,49,11.00
2014,09,04,08,50,11.10
2014,09,04,08,51,11.20
2014,09,04,08,52,11.20
2014,09,04,08,53,11.30
2014,09,04,08,54,11.40
2014,09,04,08,55,11.40
2014,09,04,08,56,11.40
2014,09,04,08,57,11.40
2014,09,04,08,58,11.50
2014,09,04,08,59,11.50
2014,09,04,09,00,11.50
2014,09,04,09,01,11.60
2014,09,04,09,02,11.60
2014,09,04,09,03,11.60
2014,09,04,09,04,11.70
2014,09,04,09,05,11.70
2014,09,04,09,06,11.70
2014,09,04,09,07,11.80
2014,09,04,09,08,11.80
2014,09,04,09,09,11.90
2014,09,04,09,10,11.90
2014,09,04,09,11,12.00
2014,09,04,09,12,12.00
2014,09,04,09,13,12.10
2014,09,04,09,14,12.10
2014,09,04,09,15,12.10
2014,09,04,09,16,12.10
2014,09,04,09,17,12.10
2014,09,04,09,18,12.20
2014,09,04,09,19,12.20
2014,09,04,09,20,12.20
2014,09,04,09,21,12.30
2014,09,04,09,22,12.30
2014,09,04,09,23,12.40
2014,09,04,09,24,12.50
2014,09,04,09,25,12.50
2014,09,04,09,26,12.60
2014,09,04,09,27,12.70
2014,09,04,09,28,12.70
2014,09,04,09,29,12.70
2014,09,04,09,30,12.80
2014,09,04,09,31,12.80
2014,09,04,09,32,12.90
2014,09,04,09,33,12.90
2014,09,04,09,34,13.00
2014,09,04,09,35,13.00
2014,09,04,09,36,13.10
2014,09,04,09,37,13.20
2014,09,04,09,38,13.20
2014,09,04,09,39,13.20
2014,09,04,09,40,13.20
2014,09,04,09,41,13.40
2014,09,04,09,42,13.50
2014,09,04,09,43,13.50
2014,09,04,09,44,13.60
2014,09,04,09,45,13.60
2014,09,04,09,46,13.70
2014,09,04,09,47,13.70
2014,09,04,09,48,13.80
2014,09,04,09,49,13.80
2014,09,04,09,50,13.90
2014,09,04,09,51,13.90
2014,09,04,09,52,14.00
2014,09,04,09,53,14.00
2014,09,04,09,54,14.10
2014,09,04,09,55,14.10
2014,09,04,09,56,14.20
2014,09,04,09,57,14.20
2014,09,04,09,58,14.30
2014,09,04,09,59,14.30
2014,09,04,10,00,14.30
2014,09,04,10,01,14.40
2014,09,04,10,02,14.40
2014,09,04,10,03,14.40
2014,09,04,10,04,14.50
2014,09,04,10,05,14.50
2014,09,04,10,06,14.50
2014,09,04,10,07,14.60
2014,09,04,10,08,14.60
2014,09,04,10,09,14.70
2014,09,04,10,10,14.70
2014,09,04,10,11,14.80
2014,09,04,10,12,14.80
2014,09,04,10,13,14.80
2014,09,04,10,14,14.90
2014,09,04,10,15,14.90
2014,09,04,10,16,15.00
2014,09,04,10,17,15.10
2014,09,04,10,18,15.20
2014,09,04,10,19,15.20
2014,09,04,10,20,15.30
2014,09,04,10,21,15.30
2014,09,04,10,22,15.30
2014,09,04,10,23,15.40
2014,09,04,10,24,15.40
2014,09,04,10,25,15.40
2014,09,04,10,26,15.50
2014,09,04,10,27,15.50
2014,09,04,10,28,15.50
2014,09,04,10,29,15.50
2014,09,04,10,30,15.60
2014,09,04,10,31,15.60
2014,09,04,10,32,15.60
2014,09,04,10,33,15.70
2014,09,04,10,34,15.70
2014,09,04,10,35,15.80
2014,09,04,10,36,15.90
2014,09,04,10,37,15.90
2014,09,04,10,38,16.00
2014,09,04,10,39,16.00
2014,09,04,10,40,16.10
2014,09,04,10,41,16.20
2014,09,04,10,42,16.20
2014,09,04,10,43,16.30
2014,09,04,10,44,16.30
2014,09,04,10,45,16.30
2014,09,04,10,46,16.30
2014,09,04,10,47,16.30
2014,09,04,10,48,16.30
2014,09,04,10,49,16.40
2014,09,04,10,50,16.40
2014,09,04,10,51,16.50
2014,09,04,10,52,16.50
2014,09,04,10,53,16.60
2014,09,04,10,54,16.60
2014,09,04,10,55,16.70
2014,09,04,10,56,16.70
2014,09,04,10,57,16.70
2014,09,04,10,58,16.60
2014,09,04,10,59,16.50
2014,09,04,11,00,16.40
2014,09,04,11,01,16.40
2014,09,04,11,02,16.40
2014,09,04,11,03,16.40
2014,09,04,11,04,16.40
2014,09,04,11,05,16.30
2014,09,04,11,06,16.30
2014,09,04,11,07,16.30
2014,09,04,11,08,16.40
2014,09,04,11,09,16.40
2014,09,04,11,10,16.40
2014,09,04,11,11,16.50
2014,09,04,11,12,16.50
2014,09,04,11,13,16.60
2014,09,04,11,14,16.60
2014,09,04,11,15,16.70
2014,09,04,11,16,16.70
2014,09,04,11,17,16.80
2014,09,04,11,18,17.00
2014,09,04,11,19,17.00
2014,09,04,11,20,17.10
2014,09,04,11,21,17.10
2014,09,04,11,22,17.10
2014,09,04,11,23,17.10
2014,09,04,11,24,17.10
2014,09,04,11,25,17.00
2014,09,04,11,26,16.90
2014,09,04,11,27,16.90
2014,09,04,11,28,16.80
2014,09,04,11,29,16.70
2014,09,04,11,30,16.70
2014,09,04,11,31,16.60
2014,09,04,11,32,16.60
2014,09,04,11,33,16.60
2014,09,04,11,34,16.70
2014,09,04,11,35,16.80
2014,09,04,11,36,16.90
2014,09,04,11,37,16.90
2014,09,04,11,38,17.00
2014,09,04,11,39,17.10
2014,09,04,11,40,17.10
2014,09,04,11,41,17.10
2014,09,04,11,42,17.10
2014,09,04,11,43,17.00
2014,09,04,11,44,16.90
2014,09,04,11,45,16.80
2014,09,04,11,46,16.70
2014,09,04,11,47,16.60
2014,09,04,11,48,16.50
2014,09,04,11,49,16.50
2014,09,04,11,50,16.40
2014,09,04,11,51,16.30
2014,09,04,11,52,16.40
2014,09,04,11,53,16.40
2014,09,04,11,54,16.40
2014,09,04,11,55,16.40
2014,09,04,11,56,16.40
2014,09,04,11,57,16.40
2014,09,04,11,58,16.50
2014,09,04,11,59,16.50
2014,09,04,12,00,16.60
2014,09,04,12,01,16.70
2014,09,04,12,02,16.70
2014,09,04,12,03,16.80
2014,09,04,12,04,16.80
2014,09,04,12,05,16.90
2014,09,04,12,06,16.90
2014,09,04,12,07,17.00
2014,09,04,12,08,17.00
2014,09,04,12,09,17.10
2014,09,04,12,10,17.10
2014,09,04,12,11,17.10
2014,09,04,12,12,17.00
2014,09,04,12,13,17.00
2014,09,04,12,14,17.00
2014,09,04,12,15,16.90
2014,09,04,12,16,16.90
2014,09,04,12,17,16.90
2014,09,04,12,18,17.00
2014,09,04,12,19,17.00
2014,09,04,12,20,17.10
2014,09,04,12,21,17.10
2014,09,04,12,22,17.00
2014,09,04,12,23,17.00
2014,09,04,12,24,17.10
2014,09,04,12,25,17.10
2014,09,04,12,26,17.10
2014,09,04,12,27,17.10
2014,09,04,12,28,17.10
2014,09,04,12,29,17.10
2014,09,04,12,30,17.10
2014,09,04,12,31,17.10
2014,09,04,12,32,17.00
2014,09,04,12,33,17.00
2014,09,04,12,34,17.10
2014,09,04,12,35,17.10
2014,09,04,12,36,17.20
2014,09,04,12,37,17.20
2014,09,04,12,38,17.20
2014,09,04,12,39,17.10
2014,09,04,12,40,17.10
2014,09,04,12,41,17.10
2014,09,04,12,42,17.10
2014,09,04,12,43,17.10
2014,09,04,12,44,17.10
2014,09,04,12,45,17.10
2014,09,04,12,46,17.10
2014,09,04,12,47,17.10
2014,09,04,12,48,17.10
2014,09,04,12,49,17.10
2014,09,04,12,50,17.10
2014,09,04,12,51,17.10
2014,09,04,12,52,17.10
2014,09,04,12,53,17.10
2014,09,04,12,54,17.00
2014,09,04,12,55,17.10
2014,09,04,12,56,17.10
2014,09,04,12,57,17.10
2014,09,04,12,58,17.10
2014,09,04,12,59,17.10
2014,09,04,13,00,17.10
2014,09,04,13,01,17.10
2014,09,04,13,02,17.10
2014,09,04,13,03,17.10
2014,09,04,13,04,17.10
2014,09,04,13,05,17.10
2014,09,04,13,06,17.10
2014,09,04,13,07,17.20
2014,09,04,13,08,17.20
2014,09,04,13,09,17.30
2014,09,04,13,10,17.30
2014,09,04,13,11,17.30
2014,09,04,13,12,17.40
2014,09,04,13,13,17.40
2014,09,04,13,14,17.40
2014,09,04,13,15,17.40
2014,09,04,13,16,17.30
2014,09,04,13,17,17.30
2014,09,04,13,18,17.30
2014,09,04,13,19,17.30
2014,09,04,13,20,17.40
2014,09,04,13,21,17.50
2014,09,04,13,22,17.50
2014,09,04,13,23,17.50
2014,09,04,13,24,17.60
2014,09,04,13,25,17.60
2014,09,04,13,26,17.60
2014,09,04,13,27,17.50
2014,09,04,13,28,17.50
2014,09,04,13,29,17.40
2014,09,04,13,30,17.40
2014,09,04,13,31,17.40
2014,09,04,13,32,17.40
2014,09,04,13,33,17.50
2014,09,04,13,34,17.60
2014,09,04,13,35,17.70
2014,09,04,13,36,17.80
2014,09,04,13,37,17.90
2014,09,04,13,38,18.00
2014,09,04,13,39,18.00
2014,09,04,13,40,18.00
2014,09,04,13,41,18.00
2014,09,04,13,42,18.00
2014,09,04,13,43,18.00
2014,09,04,13,44,18.00
2014,09,04,13,45,17.90
2014,09,04,13,46,17.90
2014,09,04,13,47,17.90
2014,09,04,13,48,17.80
2014,09,04,13,49,17.80
2014,09,04,13,50,17.80
2014,09,04,13,51,17.70
2014,09,04,13,52,17.70
2014,09,04,13,53,17.70
2014,09,04,13,54,17.70
2014,09,04,13,55,17.60
2014,09,04,13,56,17.70
2014,09,04,13,57,17.60
2014,09,04,13,58,17.60
2014,09,04,13,59,17.60
2014,09,04,14,00,17.60
2014,09,04,14,01,17.60
2014,09,04,14,02,17.60
2014,09,04,14,03,17.60
2014,09,04,14,04,17.60
2014,09,04,14,05,17.60
2014,09,04,14,06,17.60
2014,09,04,14,07,17.60
2014,09,04,14,08,17.70
2014,09,04,14,09,17.60
2014,09,04,14,10,17.50
2014,09,04,14,11,17.40
2014,09,04,14,12,17.40
2014,09,04,14,13,17.50
2014,09,04,14,14,17.60
2014,09,04,14,15,17.60
2014,09,04,14,16,17.50
2014,09,04,14,17,17.60
2014,09,04,14,18,17.60
2014,09,04,14,19,17.60
2014,09,04,14,20,17.60
2014,09,04,14,21,17.60
2014,09,04,14,22,17.70
2014,09,04,14,23,17.70
2014,09,04,14,24,17.60
2014,09,04,14,25,17.60
2014,09,04,14,26,17.50
2014,09,04,14,27,17.50
2014,09,04,14,28,17.50
2014,09,04,14,29,17.50
2014,09,04,14,30,17.50
2014,09,04,14,31,17.50
2014,09,04,14,32,17.40
2014,09,04,14,33,17.40
2014,09,04,14,34,17.30
2014,09,04,14,35,17.30
2014,09,04,14,36,17.30
2014,09,04,14,37,17.30
2014,09,04,14,38,17.40
2014,09,04,14,39,17.40
2014,09,04,14,40,17.40
2014,09,04,14,41,17.50
2014,09,04,14,42,17.60
2014,09,04,14,43,17.60
2014,09,04,14,44,17.60
2014,09,04,14,45,17.60
2014,09,04,14,46,17.60
2014,09,04,14,47,17.50
2014,09,04,14,48,17.40
2014,09,04,14,49,17.40
2014,09,04,14,50,17.40
2014,09,04,14,51,17.40
2014,09,04,14,52,17.30
2014,09,04,14,53,17.40
2014,09,04,14,54,17.40
2014,09,04,14,55,17.40
2014,09,04,14,56,17.40
2014,09,04,14,57,17.50
2014,09,04,14,58,17.60
2014,09,04,14,59,17.70
2014,09,04,15,00,17.70
2014,09,04,15,01,17.80
2014,09,04,15,02,17.80
2014,09,04,15,03,17.80
2014,09,04,15,04,17.90
2014,09,04,15,05,17.90
2014,09,04,15,06,17.90
2014,09,04,15,07,18.00
2014,09,04,15,08,18.00
2014,09,04,15,09,18.00
2014,09,04,15,10,18.00
2014,09,04,15,11,18.00
2014,09,04,15,12,18.10
2014,09,04,15,13,18.10
2014,09,04,15,14,18.10
2014,09,04,15,15,18.10
2014,09,04,15,16,18.20
2014,09,04,15,17,18.20
2014,09,04,15,18,18.10
2014,09,04,15,19,18.10
2014,09,04,15,20,18.10
2014,09,04,15,21,18.10
2014,09,04,15,22,18.00
2014,09,04,15,23,18.00
2014,09,04,15,24,17.90
2014,09,04,15,25,17.90
2014,09,04,15,26,17.80
2014,09,04,15,27,17.80
2014,09,04,15,28,17.80
2014,09,04,15,29,17.90
2014,09,04,15,30,17.90
2014,09,04,15,31,17.90
2014,09,04,15,32,17.80
2014,09,04,15,33,17.70
2014,09,04,15,34,17.60
2014,09,04,15,35,17.50
2014,09,04,15,36,17.50
2014,09,04,15,37,17.40
2014,09,04,15,38,17.30
2014,09,04,15,39,17.30
2014,09,04,15,40,17.30
2014,09,04,15,41,17.40
2014,09,04,15,42,17.40
2014,09,04,15,43,17.50
2014,09,04,15,44,17.60
2014,09,04,15,45,17.70
2014,09,04,15,46,17.90
2014,09,04,15,47,17.90
2014,09,04,15,48,17.80
2014,09,04,15,49,17.80
2014,09,04,15,50,17.80
2014,09,04,15,51,17.80
2014,09,04,15,52,17.70
2014,09,04,15,53,17.70
2014,09,04,15,54,17.80
2014,09,04,15,55,17.90
2014,09,04,15,56,17.90
2014,09,04,15,57,17.90
2014,09,04,15,58,17.80
2014,09,04,15,59,17.80
2014,09,04,16,00,17.80
2014,09,04,16,01,17.80
2014,09,04,16,02,17.80
2014,09,04,16,03,17.80
2014,09,04,16,04,17.80
2014,09,04,16,05,17.80
2014,09,04,16,06,17.70
2014,09,04,16,07,17.70
2014,09,04,16,08,17.80
2014,09,04,16,09,17.80
2014,09,04,16,10,17.90
2014,09,04,16,11,17.90
2014,09,04,16,12,18.00
2014,09,04,16,13,18.10
2014,09,04,16,14,18.20
2014,09,04,16,15,18.30
2014,09,04,16,16,18.30
2014,09,04,16,17,18.30
2014,09,04,16,18,18.30
2014,09,04,16,19,18.20
2014,09,04,16,20,18.10
2014,09,04,16,21,18.10
2014,09,04,16,22,18.10
2014,09,04,16,23,18.10
2014,09,04,16,24,18.20
2014,09,04,16,25,18.20
2014,09,04,16,26,18.30
2014,09,04,16,27,18.40
2014,09,04,16,28,18.40
2014,09,04,16,29,18.50
2014,09,04,16,30,18.50
2014,09,04,16,31,18.60
2014,09,04,16,32,18.60
2014,09,04,16,33,18.60
2014,09,04,16,34,18.60
2014,09,04,16,35,18.70
2014,09,04,16,36,18.70
2014,09,04,16,37,18.80
2014,09,04,16,38,18.70
2014,09,04,16,39,18.70
2014,09,04,16,40,18.70
2014,09,04,16,41,18.60
2014,09,04,16,42,18.60
2014,09,04,16,43,18.60
2014,09,04,16,44,18.60
2014,09,04,16,45,18.60
2014,09,04,16,46,18.60
2014,09,04,16,47,18.50
2014,09,04,16,48,18.50
2014,09,04,16,49,18.60
2014,09,04,16,50,18.50
2014,09,04,16,51,18.60
2014,09,04,16,52,18.60
2014,09,04,16,53,18.70
2014,09,04,16,54,18.70
2014,09,04,16,55,18.70
2014,09,04,16,56,18.70
2014,09,04,16,57,18.70
2014,09,04,16,58,18.70
2014,09,04,16,59,18.70
2014,09,04,17,00,18.80
2014,09,04,17,01,18.80
2014,09,04,17,02,18.80
2014,09,04,17,03,18.80
2014,09,04,17,04,18.80
2014,09,04,17,05,18.80
2014,09,04,17,06,18.90
2014,09,04,17,07,18.90
2014,09,04,17,08,19.00
2014,09,04,17,09,19.00
2014,09,04,17,10,19.00
2014,09,04,17,11,19.10
2014,09,04,17,12,19.10
2014,09,04,17,13,19.20
2014,09,04,17,14,19.20
2014,09,04,17,15,19.30
2014,09,04,17,16,19.20
2014,09,04,17,17,19.20
2014,09,04,17,18,19.20
2014,09,04,17,19,19.30
2014,09,04,17,20,19.30
2014,09,04,17,21,19.30
2014,09,04,17,22,19.40
2014,09,04,17,23,19.50
2014,09,04,17,24,19.60
2014,09,04,17,25,19.60
2014,09,04,17,26,19.60
2014,09,04,17,27,19.60
2014,09,04,17,28,19.60
2014,09,04,17,29,19.70
2014,09,04,17,30,19.70
2014,09,04,17,31,19.80
2014,09,04,17,32,19.80